Location: The Saddle
(36.8333°N, 80.3417°W)
Time: 19:54:22
(UTC-05:00)

A-11 Canister half - Pass Details

Date: 17 December 2023
Orbit: 1512 x 1687 km, 47.2° (Epoch: 26 February)

Event Time Altitude Azimuth Distance (km) Brightness Sun altitude
Rises 21:49:41 0° 253° (WSW) 4,658 12.0 -55.6°
Reaches altitude 10° 21:52:45 10° 257° (WSW) 3,689 11.3 -56.2°
Enters shadow 21:54:52 19° 261° (W) 3,050 10.8 -56.6°
Maximum altitude 22:01:57 61° 337° (NNW) 1,729 - -57.9°
Drops below altitude 10° 22:11:31 10° 57° (ENE) 3,817 - -59.8°
Sets 22:14:45 0° 61° (ENE) 4,828 - -60.4°
